SAS2647 ESSA-EDDH

Flight info

Callsign SAS2647
Flight time 1h 10m
Altitude 34000
Route NOSLI N850 ABAMA DCT GIMRU T503 MICOS/N0397F280 N850 BOGMU BOGMU3S
Aircraft A320/M-SDE3FGHIJ1RWXYZ/ALB1

Departure

Time 2026-04-23 17:43
Airport Stockholm-Arlanda Airport (ESSA)

Arrival

Time 2026-04-23 18:53
Airport Hamburg Helmut Schmidt Airport (EDDH)
Time Latitude Longitude Altitude Speed Heading
2026-04-23 16:59 59.65290 17.92962 109 ft 0 kts 71°
2026-04-23 16:59 59.65290 17.92961 109 ft 0 kts 70°
2026-04-23 17:29 59.65285 17.92938 112 ft 4 kts 70°
2026-04-23 17:29 59.65277 17.92889 112 ft 4 kts 70°
2026-04-23 17:29 59.65259 17.92790 110 ft 2 kts 70°
2026-04-23 17:30 59.65258 17.92785 110 ft 0 kts 70°
2026-04-23 17:37 59.65259 17.92789 110 ft 1 kts 58°
2026-04-23 17:37 59.65268 17.92797 111 ft 2 kts 19°
2026-04-23 17:37 59.65312 17.92761 112 ft 5 kts 332°
2026-04-23 17:38 59.65351 17.92720 112 ft 7 kts 332°
2026-04-23 17:38 59.65403 17.92683 111 ft 9 kts
2026-04-23 17:38 59.65451 17.92777 111 ft 11 kts 65°
2026-04-23 17:38 59.65480 17.92922 110 ft 12 kts 69°
2026-04-23 17:39 59.65506 17.93092 110 ft 14 kts 76°
2026-04-23 17:39 59.65535 17.93282 111 ft 15 kts 56°
2026-04-23 17:39 59.65639 17.93323 109 ft 17 kts 36°
2026-04-23 17:39 59.65703 17.93452 110 ft 9 kts 46°
2026-04-23 17:40 59.65736 17.93520 112 ft 6 kts 45°
2026-04-23 17:40 59.65762 17.93572 114 ft 5 kts 46°
2026-04-23 17:40 59.65784 17.93615 115 ft 6 kts 45°
2026-04-23 17:40 59.65814 17.93678 116 ft 7 kts 45°
2026-04-23 17:41 59.65848 17.93745 116 ft 7 kts 45°
2026-04-23 17:41 59.65866 17.93812 114 ft 0 kts 75°
2026-04-23 17:42 59.65926 17.94267 119 ft 72 kts 76°
2026-04-23 17:42 59.65970 17.94606 120 ft 93 kts 75°
2026-04-23 17:42 59.66305 17.97221 149 ft 167 kts 75°
2026-04-23 17:43 59.66636 17.99924 860 ft 164 kts 73°
2026-04-23 17:43 59.66884 18.02053 1636 ft 155 kts 71°
2026-04-23 17:43 59.67176 18.04170 1947 ft 167 kts 62°
2026-04-23 17:43 59.67935 18.05951 2141 ft 178 kts 27°
2026-04-23 17:44 59.69184 18.06595 2353 ft 198 kts
2026-04-23 17:44 59.70582 18.06680 3049 ft 200 kts
2026-04-23 17:44 59.73348 18.05950 4347 ft 216 kts 341°
2026-04-23 17:45 59.74926 18.04920 4830 ft 235 kts 340°
2026-04-23 17:45 59.77617 18.01546 6427 ft 243 kts 310°
2026-04-23 17:45 59.78666 17.98835 7153 ft 250 kts 306°
2026-04-23 17:46 59.78963 17.91811 8535 ft 282 kts 251°
2026-04-23 17:46 59.77926 17.88403 9222 ft 294 kts 239°
2026-04-23 17:46 59.76615 17.85239 9902 ft 305 kts 225°
2026-04-23 17:47 59.74772 17.82926 10301 ft 326 kts 209°
2026-04-23 17:47 59.72605 17.80923 10461 ft 349 kts 207°
2026-04-23 17:47 59.68040 17.77050 11523 ft 363 kts 206°
2026-04-23 17:48 59.66489 17.75764 11940 ft 366 kts 206°
2026-04-23 17:48 59.63355 17.73145 12796 ft 371 kts 206°
2026-04-23 17:48 59.60941 17.71100 13442 ft 374 kts 207°
2026-04-23 17:48 59.58566 17.69071 14028 ft 378 kts 207°
2026-04-23 17:49 59.56924 17.67665 14375 ft 382 kts 207°
2026-04-23 17:49 59.54466 17.65557 14891 ft 386 kts 207°
2026-04-23 17:49 59.51982 17.63428 15405 ft 390 kts 207°
2026-04-23 17:49 59.49439 17.61251 15902 ft 395 kts 207°
2026-04-23 17:50 59.46861 17.59051 16402 ft 400 kts 207°
2026-04-23 17:50 59.41682 17.54651 17402 ft 410 kts 207°
2026-04-23 17:50 59.39039 17.52414 17893 ft 415 kts 206°
2026-04-23 17:51 59.36366 17.50155 18379 ft 420 kts 206°
2026-04-23 17:51 59.33655 17.47867 18841 ft 424 kts 206°
2026-04-23 17:51 59.28184 17.43262 19835 ft 430 kts 206°
2026-04-23 17:52 59.25442 17.40883 20364 ft 431 kts 212°
2026-04-23 17:52 59.20593 17.34061 21370 ft 430 kts 223°
2026-04-23 17:52 59.18179 17.30400 21863 ft 433 kts 223°
2026-04-23 17:53 59.13399 17.23126 22841 ft 438 kts 223°
2026-04-23 17:53 59.10950 17.19416 23323 ft 441 kts 223°
2026-04-23 17:53 59.08518 17.15747 23755 ft 444 kts 223°
2026-04-23 17:54 59.06025 17.11995 24149 ft 446 kts 223°
2026-04-23 17:54 59.03605 17.08362 24514 ft 449 kts 222°
2026-04-23 17:54 58.98630 17.00920 25311 ft 452 kts 222°
2026-04-23 17:55 58.93573 16.93382 26031 ft 457 kts 222°
2026-04-23 17:55 58.91044 16.89625 26385 ft 459 kts 222°
2026-04-23 17:55 58.88497 16.85847 26738 ft 461 kts 222°
2026-04-23 17:56 58.85933 16.82050 27065 ft 464 kts 222°
2026-04-23 17:56 58.80791 16.74447 27728 ft 468 kts 222°
2026-04-23 17:56 58.78187 16.70609 28049 ft 470 kts 222°
2026-04-23 17:57 58.75574 16.66768 28388 ft 472 kts 221°
2026-04-23 17:57 58.72920 16.62879 28706 ft 475 kts 221°
2026-04-23 17:57 58.67657 16.55192 29348 ft 479 kts 221°
2026-04-23 17:58 58.64991 16.51309 29689 ft 480 kts 221°
2026-04-23 17:58 58.62324 16.47428 30134 ft 478 kts 221°
2026-04-23 17:58 58.59641 16.43538 30561 ft 476 kts 221°
2026-04-23 17:58 58.57036 16.39770 30945 ft 475 kts 222°
2026-04-23 17:59 58.54360 16.35901 31309 ft 475 kts 222°
2026-04-23 17:59 58.51720 16.32087 31666 ft 475 kts 222°
2026-04-23 17:59 58.49072 16.28266 32048 ft 474 kts 223°
2026-04-23 17:59 58.46439 16.24468 32444 ft 474 kts 223°
2026-04-23 18:00 58.43803 16.20673 32840 ft 473 kts 223°
2026-04-23 18:00 58.41141 16.16852 33234 ft 472 kts 223°
2026-04-23 18:00 58.38503 16.13076 33626 ft 472 kts 223°
2026-04-23 18:00 58.35865 16.09312 33986 ft 472 kts 223°
2026-04-23 18:01 58.33239 16.05566 34050 ft 473 kts 223°
2026-04-23 18:01 58.27961 15.98059 34054 ft 472 kts 223°
2026-04-23 18:02 58.23573 15.91852 34055 ft 472 kts 223°
2026-04-23 18:02 58.17428 15.83204 34054 ft 472 kts 223°
2026-04-23 18:03 58.12148 15.75787 34059 ft 472 kts 223°
2026-04-23 18:03 58.06860 15.68396 34056 ft 472 kts 223°
2026-04-23 18:04 58.01573 15.61021 34044 ft 472 kts 222°
2026-04-23 18:04 57.96280 15.53666 34063 ft 472 kts 222°
2026-04-23 18:05 57.91878 15.47568 34064 ft 472 kts 222°
2026-04-23 18:05 57.86570 15.40236 34070 ft 472 kts 222°
2026-04-23 18:06 57.81264 15.32931 34048 ft 472 kts 222°
2026-04-23 18:06 57.75964 15.25677 34080 ft 471 kts 222°
2026-04-23 18:07 57.70652 15.18436 34086 ft 471 kts 222°
2026-04-23 18:07 57.65351 15.11221 34095 ft 471 kts 221°
2026-04-23 18:08 57.60034 15.04016 34093 ft 471 kts 221°
2026-04-23 18:08 57.54720 14.96837 34083 ft 470 kts 222°
2026-04-23 18:09 57.49379 14.89645 34098 ft 470 kts 221°
2026-04-23 18:09 57.44097 14.82565 34099 ft 469 kts 221°
2026-04-23 18:10 57.38792 14.75484 34104 ft 469 kts 221°
2026-04-23 18:10 57.33489 14.68436 34073 ft 468 kts 221°
2026-04-23 18:11 57.28207 14.61424 34075 ft 468 kts 221°
2026-04-23 18:11 57.22913 14.54435 34074 ft 468 kts 221°
2026-04-23 18:12 57.17598 14.47460 34073 ft 469 kts 221°
2026-04-23 18:12 57.12269 14.40475 34078 ft 469 kts 221°
2026-04-23 18:13 57.06943 14.33507 34087 ft 468 kts 221°
2026-04-23 18:13 57.01636 14.26589 34063 ft 466 kts 221°
2026-04-23 18:14 56.96348 14.19736 34109 ft 464 kts 221°
2026-04-23 18:14 56.91035 14.12878 34112 ft 463 kts 221°
2026-04-23 18:15 56.85780 14.06100 34092 ft 462 kts 220°
2026-04-23 18:15 56.80521 13.99352 34111 ft 460 kts 220°
2026-04-23 18:16 56.75268 13.92635 34111 ft 459 kts 220°
2026-04-23 18:16 56.70031 13.85943 34110 ft 459 kts 220°
2026-04-23 18:17 56.62170 13.75963 34113 ft 458 kts 220°
2026-04-23 18:17 56.56923 13.69349 34095 ft 459 kts 220°
2026-04-23 18:18 56.51659 13.62718 34094 ft 460 kts 220°
2026-04-23 18:18 56.46394 13.56099 34099 ft 461 kts 220°
2026-04-23 18:19 56.41103 13.49480 34112 ft 461 kts 220°
2026-04-23 18:19 56.35808 13.42877 34102 ft 461 kts 220°
2026-04-23 18:20 56.30484 13.36267 34111 ft 462 kts 220°
2026-04-23 18:20 56.25215 13.29751 34113 ft 462 kts 219°
2026-04-23 18:21 56.19873 13.23165 34085 ft 462 kts 219°
2026-04-23 18:21 56.14601 13.16671 34112 ft 461 kts 219°
2026-04-23 18:22 56.09276 13.10145 34127 ft 460 kts 219°
2026-04-23 18:22 56.03975 13.03682 34136 ft 460 kts 219°
2026-04-23 18:23 55.96059 12.94046 34136 ft 460 kts 219°
2026-04-23 18:24 55.88904 12.85398 34135 ft 460 kts 218°
2026-04-23 18:25 55.80838 12.75700 34145 ft 461 kts 218°
2026-04-23 18:25 55.75465 12.69239 34147 ft 460 kts 218°
2026-04-23 18:26 55.70079 12.62792 34148 ft 460 kts 218°
2026-04-23 18:26 55.64772 12.56468 34110 ft 460 kts 218°
2026-04-23 18:27 55.59431 12.50142 34113 ft 461 kts 218°
2026-04-23 18:27 55.54101 12.43829 34140 ft 460 kts 218°
2026-04-23 18:28 55.48712 12.37467 34136 ft 461 kts 218°
2026-04-23 18:28 55.43888 12.30379 34143 ft 453 kts 230°
2026-04-23 18:29 55.39435 12.22408 34146 ft 452 kts 230°
2026-04-23 18:29 55.34954 12.14640 34151 ft 455 kts 222°
2026-04-23 18:30 55.29883 12.08031 34151 ft 456 kts 220°
2026-04-23 18:30 55.24797 12.01561 33909 ft 443 kts 220°
2026-04-23 18:30 55.22291 11.98390 33506 ft 438 kts 220°
2026-04-23 18:31 55.19835 11.95289 33239 ft 436 kts 220°
2026-04-23 18:31 55.17377 11.92176 32968 ft 434 kts 220°
2026-04-23 18:31 55.14938 11.89080 32705 ft 433 kts 220°
2026-04-23 18:31 55.12521 11.86016 32445 ft 431 kts 220°
2026-04-23 18:32 55.10065 11.82903 32195 ft 439 kts 220°
2026-04-23 18:32 55.07541 11.79691 31940 ft 456 kts 220°
2026-04-23 18:32 55.04960 11.76399 31686 ft 471 kts 219°
2026-04-23 18:32 55.02164 11.73235 31381 ft 486 kts 215°
2026-04-23 18:33 54.99252 11.70131 30980 ft 489 kts 214°
2026-04-23 18:33 54.96275 11.67069 30582 ft 488 kts 213°
2026-04-23 18:33 54.93363 11.64125 30200 ft 486 kts 213°
2026-04-23 18:33 54.90478 11.61220 29755 ft 483 kts 213°
2026-04-23 18:34 54.87578 11.58290 29315 ft 480 kts 213°
2026-04-23 18:34 54.84693 11.55348 28871 ft 477 kts 214°
2026-04-23 18:34 54.81829 11.52405 28442 ft 474 kts 214°
2026-04-23 18:34 54.78999 11.49490 28017 ft 472 kts 214°
2026-04-23 18:35 54.76187 11.46599 27602 ft 469 kts 214°
2026-04-23 18:35 54.73379 11.43723 27188 ft 466 kts 214°
2026-04-23 18:35 54.70589 11.40878 26780 ft 463 kts 213°
2026-04-23 18:35 54.67853 11.37983 26356 ft 455 kts 216°
2026-04-23 18:36 54.65218 11.34952 25949 ft 444 kts 218°
2026-04-23 18:36 54.62717 11.31911 25550 ft 430 kts 219°
2026-04-23 18:36 54.60317 11.28927 25176 ft 418 kts 219°
2026-04-23 18:36 54.57981 11.26021 24795 ft 409 kts 219°
2026-04-23 18:37 54.55688 11.23199 24433 ft 401 kts 219°
2026-04-23 18:37 54.53422 11.20453 24065 ft 393 kts 219°
2026-04-23 18:37 54.51197 11.17795 23691 ft 385 kts 219°
2026-04-23 18:37 54.49010 11.15201 23240 ft 377 kts 218°
2026-04-23 18:38 54.46861 11.12659 22817 ft 372 kts 218°
2026-04-23 18:38 54.44707 11.10117 22373 ft 369 kts 218°
2026-04-23 18:38 54.42603 11.07635 21879 ft 365 kts 218°
2026-04-23 18:38 54.40513 11.05164 21390 ft 363 kts 218°
2026-04-23 18:39 54.38441 11.02710 20917 ft 360 kts 218°
2026-04-23 18:39 54.36383 11.00275 20449 ft 358 kts 218°
2026-04-23 18:39 54.35029 10.98674 20147 ft 356 kts 218°
2026-04-23 18:39 54.32961 10.96227 19685 ft 356 kts 218°
2026-04-23 18:40 54.30923 10.93819 19236 ft 357 kts 218°
2026-04-23 18:40 54.28875 10.91409 18793 ft 357 kts 217°
2026-04-23 18:40 54.26818 10.88998 18336 ft 358 kts 217°
2026-04-23 18:40 54.24763 10.86593 17842 ft 358 kts 217°
2026-04-23 18:41 54.22726 10.84215 17340 ft 354 kts 217°
2026-04-23 18:41 54.20667 10.81818 16838 ft 343 kts 217°
2026-04-23 18:41 54.18716 10.79548 16364 ft 339 kts 217°
2026-04-23 18:41 54.16772 10.77284 15898 ft 336 kts 217°
2026-04-23 18:42 54.14870 10.75068 15437 ft 334 kts 218°
2026-04-23 18:42 54.12951 10.72831 14983 ft 332 kts 218°
2026-04-23 18:42 54.11047 10.70613 14531 ft 331 kts 218°
2026-04-23 18:42 54.09151 10.68407 14087 ft 329 kts 218°
2026-04-23 18:43 54.07265 10.66221 13599 ft 327 kts 218°
2026-04-23 18:43 54.05393 10.64057 13096 ft 321 kts 218°
2026-04-23 18:43 54.03565 10.61947 12618 ft 313 kts 218°
2026-04-23 18:43 54.01778 10.59885 12127 ft 307 kts 218°
2026-04-23 18:44 54.00030 10.57867 11654 ft 301 kts 218°
2026-04-23 18:44 53.98317 10.55889 11194 ft 295 kts 218°
2026-04-23 18:44 53.96534 10.53832 10693 ft 290 kts 219°
2026-04-23 18:44 53.94964 10.52022 10260 ft 286 kts 219°
2026-04-23 18:45 53.93331 10.50140 9785 ft 282 kts 219°
2026-04-23 18:45 53.91713 10.48275 9286 ft 279 kts 219°
2026-04-23 18:45 53.90109 10.46426 8768 ft 277 kts 219°
2026-04-23 18:45 53.88480 10.44555 8246 ft 275 kts 219°
2026-04-23 18:46 53.86929 10.42782 7760 ft 274 kts 219°
2026-04-23 18:46 53.85293 10.40914 7253 ft 272 kts 219°
2026-04-23 18:46 53.83768 10.39172 6781 ft 270 kts 219°
2026-04-23 18:46 53.82243 10.37414 6230 ft 268 kts 223°
2026-04-23 18:47 53.80868 10.35280 5496 ft 268 kts 235°
2026-04-23 18:47 53.79676 10.32839 5040 ft 262 kts 237°
2026-04-23 18:47 53.78548 10.30472 4684 ft 254 kts 237°
2026-04-23 18:47 53.77458 10.28229 4342 ft 245 kts 237°
2026-04-23 18:48 53.76393 10.26049 4025 ft 236 kts 237°
2026-04-23 18:48 53.75366 10.23946 3710 ft 227 kts 237°
2026-04-23 18:48 53.74384 10.21941 3414 ft 213 kts 238°
2026-04-23 18:48 53.73464 10.20065 3146 ft 194 kts 239°
2026-04-23 18:49 53.72638 10.18373 2914 ft 187 kts 239°
2026-04-23 18:49 53.71820 10.16697 2639 ft 183 kts 240°
2026-04-23 18:49 53.71013 10.15049 2390 ft 181 kts 240°
2026-04-23 18:49 53.70212 10.13414 2143 ft 179 kts 240°
2026-04-23 18:50 53.69615 10.12197 1951 ft 179 kts 240°
2026-04-23 18:50 53.68631 10.10192 1650 ft 176 kts 239°
2026-04-23 18:50 53.67889 10.08694 1407 ft 156 kts 239°
2026-04-23 18:50 53.67223 10.07338 1206 ft 146 kts 238°
2026-04-23 18:51 53.66566 10.06000 1004 ft 140 kts 239°
2026-04-23 18:51 53.65956 10.04757 813 ft 137 kts 238°
2026-04-23 18:51 53.65359 10.03545 633 ft 132 kts 238°
2026-04-23 18:51 53.64964 10.02739 516 ft 132 kts 238°
2026-04-23 18:52 53.64167 10.01143 294 ft 130 kts 237°
2026-04-23 18:52 53.63595 9.99965 90 ft 130 kts 234°
2026-04-23 18:52 53.63208 9.99167 48 ft 114 kts 230°
2026-04-23 18:52 53.62740 9.98203 43 ft 50 kts 230°
2026-04-23 18:53 53.62572 9.97876 41 ft 34 kts 224°
2026-04-23 18:53 53.62466 9.97806 41 ft 20 kts 162°
2026-04-23 18:53 53.62432 9.97923 46 ft 6 kts 83°
2026-04-23 18:53 53.62440 9.97994 45 ft 7 kts 75°
2026-04-23 18:54 53.62462 9.98086 47 ft 10 kts 60°
2026-04-23 18:54 53.62508 9.98184 47 ft 12 kts 50°
2026-04-23 18:54 53.62566 9.98299 47 ft 14 kts 50°
2026-04-23 18:54 53.62611 9.98390 47 ft 15 kts 50°
2026-04-23 18:55 53.62684 9.98540 47 ft 18 kts 50°
2026-04-23 18:55 53.62768 9.98709 47 ft 20 kts 50°
2026-04-23 18:55 53.62862 9.98899 47 ft 22 kts 51°
2026-04-23 18:55 53.62960 9.99099 47 ft 20 kts 50°
2026-04-23 18:56 53.63026 9.99232 47 ft 9 kts 50°
2026-04-23 18:56 53.63059 9.99305 47 ft 7 kts 54°
2026-04-23 18:56 53.63072 9.99336 47 ft 2 kts 55°
2026-04-23 18:56 53.63073 9.99338 47 ft 0 kts 55°
2026-04-23 18:57 53.63076 9.99347 47 ft 2 kts 55°
2026-04-23 18:58 53.63092 9.99385 47 ft 6 kts 55°
2026-04-23 18:58 53.63122 9.99457 46 ft 9 kts 55°
2026-04-23 18:58 53.63163 9.99550 46 ft 10 kts 50°
2026-04-23 18:58 53.63199 9.99624 47 ft 5 kts 50°
2026-04-23 18:59 53.63217 9.99660 48 ft 3 kts 50°
2026-04-23 18:59 53.63231 9.99708 48 ft 6 kts 78°
2026-04-23 18:59 53.63208 9.99770 48 ft 8 kts 139°
2026-04-23 18:59 53.63153 9.99822 48 ft 10 kts 153°
2026-04-23 19:00 53.63084 9.99881 48 ft 11 kts 153°
2026-04-23 19:00 53.63026 9.99932 48 ft 10 kts 152°
2026-04-23 19:00 53.62963 9.99987 48 ft 9 kts 153°
2026-04-23 19:00 53.62897 10.00037 47 ft 10 kts 166°
2026-04-23 19:01 53.62839 10.00076 48 ft 10 kts 153°
2026-04-23 19:01 53.62784 10.00124 48 ft 6 kts 151°
2026-04-23 19:01 53.62787 10.00179 48 ft 5 kts 64°
2026-04-23 19:01 53.62800 10.00216 48 ft 3 kts 60°
2026-04-23 19:02 53.62804 10.00231 47 ft 1 kts 62°
2026-04-23 19:02 53.62808 10.00243 48 ft 1 kts 62°
2026-04-23 19:02 53.62809 10.00246 48 ft 0 kts 62°